Location: Unspecified
(0.0000°N, 0.0000°E)
Time: 14:03:43
(UTC+00:00)

Hubble Space Telescope - Visible Passes

Search period start: 24 August 2019 00:00
Search period end: 03 September 2019 00:00
Orbit: 536 x 540 km, 28.5° (Epoch: 23 August)

Date Brightness Start Highest point End Pass type
(mag) Time Alt. Az. Time Alt. Az. Time Alt. Az.
27 Aug 2.9 18:58:22 10° N 19:00:26 13° NNE 19:01:43 12° NE visible
28 Aug 2.6 18:47:04 10° NNW 18:49:57 18° NNE 18:51:59 13° ENE visible
28 Aug 3.9 20:27:01 10° WNW 20:27:21 12° WNW 20:27:21 12° WNW visible
29 Aug 2.2 18:36:02 10° NNW 18:39:26 25° NNE 18:42:20 13° E visible
29 Aug 3.5 20:16:36 10° WNW 20:17:41 17° W 20:17:41 17° W visible
30 Aug 1.7 18:25:09 10° NW 18:28:55 34° NNE 18:32:41 10° E visible
30 Aug 3.1 20:06:18 10° W 20:08:04 22° W 20:08:04 22° W visible
31 Aug 2.9 19:56:08 10° W 19:58:30 22° SW 19:58:30 22° SW visible
01 Sep 3.5 04:30:50 10° SSE 04:31:50 11° SSE 04:32:50 10° SE visible
01 Sep 3.0 19:46:10 10° WSW 19:48:56 18° SSW 19:48:56 18° SSW visible
02 Sep 3.1 04:20:33 14° SSE 04:21:22 15° SSE 04:23:42 10° ESE visible
02 Sep 3.2 19:36:30 10° WSW 19:38:33 13° SSW 19:39:23 13° SSW visible
